When you browse on this site, cookies collect data to enhance your experience and personalize the content and advertising you see.
Visit our Privacy Policy to learn more. By continuing to use the site, you agree to this use of cookies and data.
  • In Spain
  • List of Countries
  • For 7 days
  • Water Temperature
  • Satellite Maps
  • Weather Map
  • Weather Widgets
  • user-avatar
    Login

    Hourly Weather Baku

    Today, 19 February, Tuesday

    Time Temperature Precipitation Wind Pressure Humidity
    00:00 +2°C° 0.3 mm 9 mps 758 mmHg 66%
    01:00 +2°C° 0.4 mm 9 mps 759 mmHg 67%
    02:00 +2°C° 0.4 mm 9 mps 759 mmHg 68%
    03:00 +1°C° 0 mm 11 mps 759 mmHg 68%
    04:00 +1°C° 0.4 mm 11 mps 759 mmHg 68%
    05:00 0°C° 0.4 mm 12 mps 760 mmHg 68%
    06:00 -1°C° 0.4 mm 13 mps 760 mmHg 69%
    07:00 -1°C° 0.3 mm 13 mps 761 mmHg 68%
    08:00 -1°C° 0.3 mm 13 mps 762 mmHg 67%
    09:00 -1°C° 0.3 mm 13 mps 762 mmHg 66%
    10:00 -1°C° 0.2 mm 12 mps 763 mmHg 65%
    11:00 -1°C° 0.2 mm 12 mps 763 mmHg 64%
    12:00 +1°C° 0.2 mm 11 mps 764 mmHg 63%
    13:00 +1°C° 0.1 mm 11 mps 764 mmHg 63%
    14:00 +1°C° 0.1 mm 11 mps 764 mmHg 63%
    15:00 -1°C° 0.1 mm 11 mps 764 mmHg 63%
    16:00 0°C° 0.1 mm 10 mps 765 mmHg 62%
    17:00 0°C° 0.1 mm 10 mps 766 mmHg 62%
    18:00 0°C° 0.1 mm 10 mps 767 mmHg 61%
    19:00 0°C° 0 mm 10 mps 767 mmHg 61%
    20:00 0°C° 0 mm 10 mps 768 mmHg 61%
    21:00 0°C° 0 mm 10 mps 769 mmHg 61%
    22:00 0°C° 0 mm 10 mps 769 mmHg 62%
    23:00 0°C° 0 mm 9 mps 769 mmHg 62%

    Tomorrow, 20 February, Wednesday

    Time Temperature Precipitation Wind Pressure Humidity
    00:00 -1°C° 0 mm 9 mps 770 mmHg 62%
    01:00 -1°C° 0 mm 9 mps 770 mmHg 63%
    02:00 -1°C° 0 mm 8 mps 770 mmHg 63%
    03:00 -1°C° 0 mm 8 mps 770 mmHg 63%
    04:00 -1°C° 0 mm 7 mps 771 mmHg 64%
    05:00 -1°C° 0 mm 6 mps 771 mmHg 64%
    06:00 0°C° 0 mm 5 mps 771 mmHg 64%
    07:00 0°C° 0 mm 4 mps 771 mmHg 63%
    08:00 +2°C° 0 mm 3 mps 771 mmHg 61%
    09:00 +4°C° 0 mm 1 mps 772 mmHg 60%
    10:00 +4°C° 0 mm 2 mps 771 mmHg 59%
    11:00 +4°C° 0 mm 3 mps 771 mmHg 59%
    12:00 +4°C° 0 mm 4 mps 771 mmHg 59%
    13:00 +5°C° 0 mm 5 mps 770 mmHg 59%
    14:00 +4°C° 0 mm 6 mps 770 mmHg 60%
    15:00 +4°C° 0 mm 6 mps 769 mmHg 61%
    16:00 +4°C° 0 mm 7 mps 769 mmHg 64%
    17:00 +4°C° 0 mm 7 mps 769 mmHg 68%
    18:00 +4°C° 0 mm 7 mps 769 mmHg 72%
    19:00 +4°C° 0 mm 8 mps 769 mmHg 74%
    20:00 +4°C° 0 mm 8 mps 768 mmHg 75%
    21:00 +4°C° 0 mm 8 mps 768 mmHg 77%
    22:00 +5°C° 0 mm 8 mps 768 mmHg 77%
    23:00 +5°C° 0 mm 8 mps 767 mmHg 76%

    Day after tomorrow, 21 February, Thursday

    Time Temperature Precipitation Wind Pressure Humidity
    00:00 +5°C° 0 mm 9 mps 767 mmHg 76%
    01:00 +5°C° 0 mm 9 mps 766 mmHg 77%
    02:00 +5°C° 0 mm 9 mps 766 mmHg 77%
    03:00 +5°C° 0 mm 9 mps 765 mmHg 78%
    04:00 +5°C° 0 mm 9 mps 765 mmHg 79%
    05:00 +5°C° 0 mm 9 mps 765 mmHg 80%
    06:00 +5°C° 0 mm 9 mps 764 mmHg 81%
    07:00 +6°C° 0 mm 9 mps 765 mmHg 79%
    08:00 +6°C° 0 mm 9 mps 765 mmHg 78%
    09:00 +6°C° 0 mm 9 mps 765 mmHg 76%
    10:00 +6°C° 0 mm 9 mps 764 mmHg 73%
    11:00 +7°C° 0 mm 9 mps 764 mmHg 69%
    12:00 +7°C° 0 mm 8 mps 764 mmHg 66%
    13:00 +9°C° 0 mm 8 mps 763 mmHg 63%
    14:00 +9°C° 0 mm 8 mps 763 mmHg 60%
    15:00 +9°C° 0 mm 8 mps 762 mmHg 57%
    16:00 +9°C° 0 mm 8 mps 762 mmHg 60%
    17:00 +7°C° 0 mm 8 mps 762 mmHg 63%
    18:00 +8°C° 0 mm 7 mps 762 mmHg 66%
    19:00 +8°C° 0 mm 7 mps 762 mmHg 66%
    20:00 +6°C° 0 mm 7 mps 762 mmHg 65%
    21:00 +6°C° 0 mm 7 mps 762 mmHg 65%
    22:00 +7°C° 0 mm 6 mps 762 mmHg 64%
    23:00 +5°C° 0 mm 6 mps 762 mmHg 63%

    22 February, Friday

    Time Temperature Precipitation Wind Pressure Humidity
    00:00 +5°C° 0 mm 6 mps 761 mmHg 61%
    01:00 +5°C° 0 mm 6 mps 761 mmHg 60%
    02:00 +6°C° 0 mm 5 mps 761 mmHg 59%
    03:00 +5°C° 0 mm 5 mps 760 mmHg 58%
    04:00 +5°C° 0 mm 4 mps 760 mmHg 58%
    05:00 +5°C° 0 mm 4 mps 760 mmHg 58%
    06:00 +4°C° 0 mm 3 mps 760 mmHg 58%
    07:00 +5°C° 0 mm 3 mps 761 mmHg 56%
    08:00 +7°C° 0 mm 3 mps 761 mmHg 54%
    09:00 +8°C° 0 mm 3 mps 762 mmHg 52%
    10:00 +9°C° 0 mm 3 mps 762 mmHg 51%
    11:00 +8°C° 0 mm 4 mps 762 mmHg 51%
    12:00 +10°C° 0 mm 4 mps 762 mmHg 50%
    13:00 +9°C° 0 mm 5 mps 762 mmHg 52%
    14:00 +8°C° 0 mm 6 mps 762 mmHg 53%
    15:00 +7°C° 0 mm 8 mps 762 mmHg 55%
    16:00 +6°C° 0 mm 7 mps 762 mmHg 63%
    17:00 +6°C° 0 mm 7 mps 763 mmHg 72%
    18:00 +5°C° 0 mm 7 mps 763 mmHg 80%
    19:00 +5°C° 0 mm 7 mps 763 mmHg 81%
    20:00 +5°C° 0 mm 6 mps 764 mmHg 82%
    21:00 +6°C° 0 mm 5 mps 764 mmHg 82%
    22:00 +5°C° 0 mm 4 mps 764 mmHg 83%
    23:00 +5°C° 0 mm 4 mps 764 mmHg 85%

    23 February, Saturday

    Time Temperature Precipitation Wind Pressure Humidity
    00:00 +5°C° 0 mm 3 mps 764 mmHg 86%
    01:00 +6°C° 0 mm 2 mps 764 mmHg 87%
    02:00 +6°C° 0 mm 1 mps 764 mmHg 88%
    03:00 +5°C° 0 mm 0 mps 763 mmHg 90%
    04:00 +6°C° 0 mm 1 mps 763 mmHg 88%
    05:00 +6°C° 0 mm 2 mps 763 mmHg 87%
    06:00 +5°C° 0 mm 3 mps 763 mmHg 86%
    07:00 +5°C° 0 mm 4 mps 763 mmHg 81%
    08:00 +5°C° 0 mm 6 mps 763 mmHg 77%
    09:00 +6°C° 0 mm 7 mps 763 mmHg 72%
    10:00 +7°C° 0 mm 8 mps 763 mmHg 66%
    11:00 +9°C° 0 mm 8 mps 763 mmHg 59%
    12:00 +10°C° 0 mm 9 mps 762 mmHg 53%
    13:00 +10°C° 0 mm 9 mps 762 mmHg 50%
    14:00 +11°C° 0 mm 9 mps 761 mmHg 48%
    15:00 +11°C° 0 mm 8 mps 761 mmHg 45%
    16:00 +11°C° 0 mm 8 mps 761 mmHg 48%
    17:00 +10°C° 0 mm 8 mps 761 mmHg 51%
    18:00 +10°C° 0 mm 8 mps 761 mmHg 55%
    19:00 +10°C° 0 mm 8 mps 761 mmHg 57%
    20:00 +8°C° 0 mm 9 mps 761 mmHg 59%
    21:00 +8°C° 0 mm 9 mps 761 mmHg 61%
    22:00 +9°C° 0 mm 8 mps 761 mmHg 62%
    23:00 +9°C° 0 mm 8 mps 761 mmHg 64%

    24 February, Sunday

    Time Temperature Precipitation Wind Pressure Humidity
    00:00 +8°C° 0 mm 7 mps 761 mmHg 65%
    01:00 +8°C° 0 mm 7 mps 761 mmHg 62%
    02:00 +8°C° 0 mm 6 mps 761 mmHg 59%
    03:00 +7°C° 0 mm 5 mps 761 mmHg 56%
    04:00 +7°C° 0 mm 5 mps 761 mmHg 56%
    05:00 +6°C° 0 mm 4 mps 762 mmHg 56%
    06:00 +7°C° 0 mm 3 mps 762 mmHg 56%
    07:00 +8°C° 0 mm 3 mps 762 mmHg 56%
    08:00 +8°C° 0 mm 2 mps 763 mmHg 56%
    09:00 +9°C° 0 mm 2 mps 763 mmHg 56%
    10:00 +9°C° 0 mm 2 mps 763 mmHg 56%
    11:00 +11°C° 0 mm 1 mps 763 mmHg 55%
    12:00 +12°C° 0 mm 1 mps 763 mmHg 54%
    13:00 +12°C° 0 mm 1 mps 763 mmHg 52%
    14:00 +13°C° 0 mm 1 mps 763 mmHg 50%
    15:00 +13°C° 0 mm 2 mps 763 mmHg 47%
    16:00 +13°C° 0 mm 2 mps 763 mmHg 49%
    17:00 +11°C° 0 mm 3 mps 764 mmHg 51%
    18:00 +11°C° 0 mm 3 mps 764 mmHg 53%
    19:00 +11°C° 0 mm 4 mps 764 mmHg 52%
    20:00 +11°C° 0 mm 4 mps 764 mmHg 52%
    21:00 +10°C° 0 mm 5 mps 764 mmHg 51%
    22:00 +10°C° 0 mm 5 mps 764 mmHg 52%
    23:00 +10°C° 0 mm 5 mps 764 mmHg 52%
    Show more